User: anonymous   Login
Location: Finkenwalde
(53.3770°N, 14.6418°E)
Time: 01:28:28
(UTC+00:00)
Language:

Cosmos 909 Rocket - Orbit

View from above orbital plane
View from above orbital plane
View from above satellite
View from above satellite

Ground track
Ground track

The orbit data is extracted from the following two-line orbital elements,

1 10011U 77036B   24144.31080174 -.00000089  00000-0 -12212-3 0  9995
2 10011  65.8617 109.7659 0704552 329.5785 184.3672 12.32245557 93938
Epoch (UTC): 23 May 2024 07:27:33
Eccentricity: 0.0704552
inclination: 65.8617°
perigee height: 982 km
apogee height: 2097 km
right ascension of ascending node: 109.7659°
argument of perigee: 329.5785°
revolutions per day: 12.32245557
mean anomaly at epoch: 184.3672°
orbit number at epoch: 9393

The dashed part of the orbit path shows where the satellite is in the earth's shadow,  

DLR